Regional Weather Roundup
Issued by NWS

Home | Current Version | Previous Version | Graphics & Text | Print | Product List | Glossary On
Versions: 1 2 3 4 5 6 7 8 9 10 11 12 13 14 15 16 17 18 19 20 21 22 23 24 25 26 27 28 29 30 31 32 33 34 35 36 37 38 39 40 41 42 43 44 45 46 47 48 49 50
000
ASUS43 KIND 271309
RWRIN

WEATHER ROUNDUP FOR INDIANA
NATIONAL WEATHER SERVICE INDIANAPOLIS IN
800 AM EST MON FEB 27 2017

NOTE: "FAIR" INDICATES FEW OR NO CLOUDS BELOW 12,000 FEET WITH NO
SIGNIFICANT WEATHER AND/OR OBSTRUCTIONS TO VISIBILITY.

* - STATION DOES NOT REPORT WEATHER SUCH AS PRECIPITATION OR FOG.

+ - STATION NOT QUALITY CONTROLLED BY THE NATIONAL WEATHER SERVICE.
    USE DATA WITH CAUTION...ESPECIALLY DEWPOINT AND RELATIVE
    HUMIDITY OBSERVATIONS.

INZ001>003-010>013-019-020-271400-
NORTHWEST INDIANA

CITY           SKY/WX    TMP DP  RH WIND       PRES   REMARKS
GARY /AIRPORT/ MOCLDY    32  27  80 CALM      30.16R
KNOX *+        CLEAR     28  10  47 S5        30.17R WCI  23
LA PORTE +     PTCLDY    25  22  90 CALM      30.17R
MICHIGAN CITY+ MOCLDY    32  28  86 S3        30.17R
MONTICELLO +   MOCLDY    31  27  84 CALM      30.18R
RENSSELAER +     N/A     28  27  93 S3        30.19R
VALPARAISO     CLEAR     27  23  85 N3        30.17R

$$

LMZ046-743>745-271400-
SOUTHERN LAKE MICHIGAN

STATION/POSITION TIME  TEMP    WIND        PRES    WAVE
                       AIR SEA DIR/SP/G            HT
                 (UTC) (F)     (DEG/KT/KT) (MB)    (FT)
BURNS HARBOR     1240   33     190/  6/  9 1021.3R
MICHIGAN CITY    1240   35     170/  7/  8   N/A

$$

INZ004-005-014>016-021>024-271400-
NORTH CENTRAL INDIANA

CITY           SKY/WX    TMP DP  RH WIND       PRES   REMARKS
ELKHART        CLEAR     28  23  80 CALM      30.17R
GOSHEN         CLEAR     31  22  69 S6        30.17R WCI  25
LOGANSPORT +   CLOUDY    32  28  86 S3        30.20R
PERU/GRISSOM   CLOUDY    34  30  85 S6        30.18R WCI  29
ROCHESTER +    CLEAR     36  30  80 S5        30.19R
SOUTH BEND     PTCLDY    30  23  75 S3        30.17R
WARSAW +       CLEAR     28  23  80 CALM      30.19R

$$

INZ006>009-017-018-025>027-271400-
NORTHEAST INDIANA

CITY           SKY/WX    TMP DP  RH WIND       PRES   REMARKS
ANGOLA *+      CLEAR     27  25  93 CALM      30.16S
AUBURN +       CLEAR     32  23  69 S5        30.20R WCI  27
FORT WAYNE     MOCLDY    32  24  72 S7        30.21R WCI  26
HUNTINGTON +   CLOUDY    34  25  70 S3        30.20R
KENDALLVILLE + CLEAR     30  22  72 S5        30.17R WCI  25

$$

INZ028-029-035-036-043>045-051>053-271400-
WEST CENTRAL INDIANA

CITY           SKY/WX    TMP DP  RH WIND       PRES   REMARKS
LAFAYETTE      CLOUDY    35  31  85 CALM      30.19R
TERRE HAUTE    CLOUDY    40  33  76 E5        30.19R

$$

INZ030>032-037>040-046>048-054>057-064-065-271400-
CENTRAL INDIANA

CITY           SKY/WX    TMP DP  RH WIND       PRES   REMARKS
CP ATTERBURY + CLOUDY    39  28  65 CALM      30.22R
COLUMBUS       CLOUDY    41  30  65 S6        30.22R
FISHERS *+     CLOUDY    39  36  87 CALM      30.21R
FRANKFORT +    LGT RAIN  38  35  88 S5        30.21R
GREENWOOD *+   CLOUDY    41  26  56 SE3       30.21R
INDIANAPOLIS   CLOUDY    41  30  65 SE5       30.20R
-EAGLE CREEK   CLOUDY    42  31  64 VRB3      30.20R
KOKOMO +       LGT RAIN  37  32  82 S7        30.21R
MARION +       CLOUDY    37  32  83 S5        30.21R
MT COMFORT *+  CLOUDY    39  30  70 SE3       30.21R
SHELBYVILLE    CLOUDY    41  27  57 SE6       30.20R
ZIONSVILLE +   CLOUDY    39  33  80 S6        30.21R

$$

INZ033-034-041-042-049-050-058-059-271400-
EAST CENTRAL INDIANA

CITY           SKY/WX    TMP DP  RH WIND       PRES   REMARKS
MUNCIE         CLOUDY    41  33  73 S6        30.21R

$$

INZ060-061-067>069-081>083-085>088-271400-
SOUTHWEST INDIANA

CITY           SKY/WX    TMP DP  RH WIND       PRES   REMARKS
EVANSVILLE     CLOUDY    44  40  85 SE6       30.19R
HUNTINGBURG *+ LGT RAIN  43  40  89 SE6       30.20S
WASHINGTON +   CLOUDY    41  36  80 SE3       30.20R

$$

INZ062-063-066-070>080-084-089>092-271400-
SOUTH CENTRAL AND SOUTHEAST INDIANA

CITY           SKY/WX    TMP DP  RH WIND       PRES   REMARKS
BEDFORD +      CLOUDY    43  34  70 SE5       30.20R
BLOOMINGTON    CLOUDY    43  29  57 S6        30.20R
MADISON *+     CLOUDY    43  36  75 SE7       30.25R
NORTH VERNON + CLOUDY    41  32  70 S3        30.23R
SEYMOUR +      CLOUDY    43  34  70 SE6       30.23R

$$




USA.gov is the U.S. government's official web portal to all federal, state and local government web resources and services.